Location: Franzen
(48.6167°N, 15.3833°E)
Time: 17:05:54
(UTC+00:00)

A-11 Canister half - Pass Details

Date: 31 July 2021
Orbit: 1515 x 1685 km, 47.2° (Epoch: 19 September)

Event Time Altitude Azimuth Distance (km) Brightness Sun altitude
Rises 23:50:40 0° 290° (WNW) 4,936 11.8 -22.3°
Reaches altitude 10° 23:54:44 10° 276° (W) 3,951 11.1 -22.2°
Enters shadow 00:01:45 22° 232° (SW) 3,070 10.1 -21.9°
Maximum altitude 00:01:54 22° 231° (SW) 3,069 - -21.9°
Drops below altitude 10° 00:09:01 10° 185° (S) 3,917 - -21.6°
Sets 00:13:04 0° 171° (S) 4,883 - -21.4°
